Lid_Strength_Index
10 8 8 7 6 5 5 4 3 2 3 4 3 2 2 1 1 1 0 1 1 1 2 2 3 3 4 4 3 4 4 4 3 3 3 2 1 1 0 0 1 1 0
10 9 8 7 8 6 5 5 4 3 1 2 2 1 1 1 1 1 1 1 1 1 2 2 3 3 4 4 4 3 4 4 3 4 4 5 3 2 1 1 1 1 1
10 10 9 9 8 8 6 5 4 4 3 1 1 3 3 3 2 2 1 1 1 1 1 2 3 3 3 4 4 3 3 4 4 3 3 6 6 4 3 2 2 1 1
9 8 7 9 9 9 8 7 5 5 3 3 2 2 3 3 2 2 1 1 1 1 1 2 2 2 3 3 4 3 3 3 4 3 2 2 2 5 5 2 2 1 1
8 8 7 7 7 7 8 8 7 6 4 3 2 2 3 2 2 3 2 2 2 1 1 1 1 2 3 3 3 3 3 3 4 3 3 2 2 2 4 6 4 2 1
8 8 7 7 6 6 6 9 8 6 4 2 2 2 2 2 3 4 4 4 3 3 2 1 1 1 1 2 2 2 3 3 2 2 2 3 4 4 4 5 4 4 3
9 9 9 8 7 6 5 5 6 7 5 3 2 2 2 2 3 2 3 4 4 2 1 1 1 1 1 1 1 2 3 2 2 2 2 1 2 2 2 3 5 4 3
9 9 9 8 7 6 5 5 5 6 6 4 2 2 2 2 2 2 4 4 2 1 1 1 1 1 1 1 2 2 2 2 3 3 2 2 2 2 3 3 4 5 4
9 9 8 8 7 6 6 6 6 5 3 5 3 2 2 2 4 4 4 3 1 1 1 1 1 1 2 2 2 2 2 2 2 2 2 2 2 2 2 3 3 3 6
7 7 8 7 7 6 6 6 6 5 3 4 5 2 2 2 2 4 4 2 1 1 1 1 1 2 2 2 2 2 2 3 2 2 2 3 3 3 3 2 2 2 3
6 6 7 6 6 6 6 6 6 4 3 3 7 4 2 2 2 2 2 1 1 1 1 1 2 2 2 2 2 2 2 2 2 2 3 3 2 3 2 2 2 3 2
6 6 5 6 6 6 6 7 4 3 2 3 7 5 2 2 2 2 2 1 1 1 1 2 2 2 2 2 2 2 2 2 3 3 3 3 2 2 2 2 2 2 2
6 6 5 5 6 6 6 5 4 3 2 5 6 2 2 2 2 2 2 1 1 2 2 2 2 2 2 2 2 2 2 2 3 2 2 2 1 2 2 2 2 2 1
6 6 6 6 5 5 5 4 3 3 2 5 3 3 3 2 2 2 2 2 2 2 2 2 2 1 2 2 2 2 2 2 2 2 1 1 1 1 2 2 2 2 2
6 6 5 5 4 4 4 3 3 3 3 3 3 3 2 2 2 2 2 2 1 2 2 2 2 2 2 2 2 2 2 2 2 2 1 1 1 2 2 2 2 1 2
6 6 5 5 5 4 4 3 3 3 3 3 3 2 2 2 2 2 3 3 3 2 2 2 2 2 3 10 7 3 2 2 2 2 2 1 3 3 5 5 4 2 2
6 6 5 5 4 4 3 4 3 3 3 3 3 3 2 3 3 3 3 3 3 2 3 4 3 5 6 10 9 7 1 1 2 2 2 2 1 2 2 6 6 5 5
6 6 6 6 5 4 3 3 3 3 3 3 3 3 3 3 3 3 3 4 4 5 5 5 5 4 6 10 10 8 2 2 2 2 2 1 2 2 3 3 3 2 1
7 6 5 6 5 4 3 3 4 4 3 4 3 4 4 4 3 4 4 4 5 5 5 4 4 4 5 11 11 5 2 2 2 2 1 1 2 8 8 2 3 3 4
7 6 6 5 6 3 3 4 4 4 4 3 3 3 3 3 3 4 4 4 4 4 3 3 3 5 4 11 10 5 3 3 2 2 3 7 4 11 9 2 3 4 4
7 6 6 6 4 3 3 4 4 4 3 3 3 3 3 3 3 4 4 4 4 4 4 3 3 3 4 7 10 8 2 2 3 3 3 5 11 10 10 7 2 4 4
7 6 5 5 3 3 3 4 4 3 2 3 3 3 3 3 2 3 3 3 3 4 3 3 3 3 4 8 10 9 7 6 3 3 4 7 12 12 11 7 11 9 5
5 4 4 4 4 3 3 4 3 4 3 3 3 3 3 2 2 2 3 3 3 3 4 4 3 3 3 6 11 11 10 8 4 4 7 11 12 11 10 11 10 7 2
5 5 4 5 4 3 3 3 3 2 3 3 3 3 3 3 2 2 3 3 3 3 3 3 3 3 3 4 4 5 6 9 8 8 7 8 8 8 7 5 3 2 1
7 6 5 5 4 4 3 3 3 3 3 3 3 3 3 4 7 8 4 3 3 3 3 2 2 3 4 4 6 5 4 4 6 5 3 3 3 3 4 3 2 2 2
7 5 4 4 4 3 3 3 3 2 3 3 3 3 4 5 5 5 6 12 11 10 9 8 5 4 8 11 11 11 11 10 9 4 4 4 3 3 3 3 3 2 3